This demonstration page uses our WeatherBlox Daily Observations layout. Learn more.

Left ArrowRight Arrow

Hourly Observations for August 31, 2015

Temp ( °F °C ) Dew Point ( °F °C ) Humidity (%) Winds ( mph kmh ) Pressure ( in mb ) Visibility ( mi km ) Precip ( " mm )
12:54 am 00:54 Clear with Mist and Fog 66 18.9 65 18.3 96 96 S 6 9 29.95 1014 6 9.65604 0 0
1:54 am 01:54 Clear with Mist and Fog 66 18.9 64 17.8 93 93 S 5 7 29.94 1014 5 8.0467 0 0
2:54 am 02:54 Clear with Mist and Fog 66 18.9 65 18.3 96 96 Calm 29.93 1014 5 8.0467 0 0
3:54 am 03:54 Clear with Mist and Fog 64 17.8 64 17.8 100 100 S 3 6 29.92 1013 3 4.82802 0 0
4:01 am 04:01 Clear with Mist and Fog 64 18 64 18 100 100 SSE 3 6 29.91 1013 2.5 4.02335 0 0
4:13 am 04:13 Clear with Mist and Fog 64 18 64 18 100 100 SSE 3 6 29.91 1013 3 4.82802 0 0
4:31 am 04:31 Clear with Mist and Fog 63 17.2 63 17.2 100 100 Calm 29.91 1013 2 3.21868 0 0
4:38 am 04:38 Clear with Mist and Fog 63 17 63 17 100 100 Calm 29.91 1013 1 1.60934 0 0
4:54 am 04:54 Clear with Mist and Fog 64 17.8 63 17.2 96 96 SSE 3 6 29.92 1013 2 3.21868 0 0
5:00 am 05:00 Mostly Cloudy with Mist and Fog 64 18 64 18 100 100 SSE 5 7 29.91 1013 0.75 1.207005 0 0
5:09 am 05:09 Mostly Cloudy with Mist and Fog 63 17.2 63 17.2 100 100 SE 3 6 29.91 1013 1 1.60934 0 0
5:12 am 05:12 Mostly Clear with Mist and Fog 63 17 63 17 100 100 SE 3 6 29.91 1013 2.5 4.02335 0 0
5:29 am 05:29 Mostly Cloudy with Mist and Fog 63 17.2 63 17.2 100 100 Calm 29.91 1013 1 1.60934 0 0
5:31 am 05:31 Clear with Mist and Fog 63 17.2 62 16.7 97 97 Calm 29.91 1013 0.75 1.207005 0 0
5:45 am 05:45 Mostly Clear with Fog 63 17.2 63 17.2 100 100 Calm 29.91 1013 0.5 0.80467 0 0
5:54 am 05:54 Mostly Clear with Mist and Fog 63 17.2 62 16.7 97 97 Calm 29.92 1013 1 1.60934 0 0
6:09 am 06:09 Clear with Mist and Fog 64 17.8 63 17.2 96 96 S 3 6 29.91 1013 2 3.21868 0 0
6:13 am 06:13 Mostly Cloudy with Mist and Fog 63 17.2 63 17.2 100 100 SSE 5 7 29.91 1013 1 1.60934 0 0
6:21 am 06:21 Mostly Cloudy with Mist and Fog 62 16.7 62 16.7 100 100 SSE 6 9 29.91 1013 0.75 1.207005 0 0
6:23 am 06:23 Mostly Clear with Mist and Fog 63 17.2 62 16.7 97 97 SSE 6 9 29.91 1013 1.25 2.011675 0 0
6:33 am 06:33 Mostly Clear with Mist and Fog 63 17.2 62 16.7 97 97 Calm 29.91 1013 2.5 4.02335 0 0
6:43 am 06:43 Clear with Mist and Fog 63 17.2 63 17.2 100 100 Calm 29.91 1013 4 6.43736 0 0
6:54 am 06:54 Sunny with Mist and Fog 63 17.2 63 17.2 100 100 S 3 6 29.93 1013 2 3.21868 0 0
7:54 am 07:54 Sunny with Mist and Fog 64 17.8 64 17.8 100 100 SSE 3 6 29.94 1014 2.5 4.02335 0 0
8:39 am 08:39 Sunny with Mist and Fog 67 19.4 66 18.9 97 97 S 5 7 29.94 1014 4 6.43736 0 0
8:54 am 08:54 Sunny with Mist and Fog 68 20 67 19.4 96 96 S 7 11 29.94 1014 4 6.43736 0 0
9:54 am 09:54 Hazy 74 23.3 69 20.6 85 85 SSW 10 17 29.94 1014 6 9.65604 0 0
10:54 am 10:54 Sunny 79 26.1 70 21.1 74 74 S 13 20 29.94 1014 7 11.26538 0 0
11:54 am 11:54 Mostly Sunny 82 27.8 69 20.6 65 65 S 13 20 29.93 1014 9 14.48406 0 0
12:54 pm 12:54 Mostly Sunny 84 28.9 67 19.4 57 57 S 13 20 29.91 1013 9 14.48406 0 0
1:54 pm 13:54 Sunny 86 30 66 18.9 51 51 S 13 20 29.9 1013 8 12.87472 0 0
2:54 pm 14:54 Mostly Sunny 86 30 68 20 55 55 SSW 10 17 29.9 1012 8 12.87472 0 0
3:54 pm 15:54 Sunny 87 30.6 68 20 53 53 S 15 24 29.87 1012 9 14.48406 0 0
4:54 pm 16:54 Sunny 88 31.1 69 20.6 54 54 S 12 19 29.86 1011 9 14.48406 0 0
5:54 pm 17:54 Sunny 87 30.6 70 21.1 57 57 SSE 13 20 29.87 1011 10 16.0934 0 0
6:54 pm 18:54 Sunny 86 30 69 20.6 57 57 SSE 12 19 29.86 1011 10 16.0934 0 0
7:54 pm 19:54 Sunny 83 28.3 68 20 61 61 SE 7 11 29.85 1011 9 14.48406 0 0
8:54 pm 20:54 Clear 80 26.7 67 19.4 64 64 ESE 6 9 29.87 1012 10 16.0934 0 0
9:54 pm 21:54 Clear 76 24.4 68 20 77 77 SE 3 6 29.89 1012 9 14.48406 0 0
10:54 pm 22:54 Clear 77 25 68 20 74 74 SSE 8 13 29.89 1012 9 14.48406 0 0
11:54 pm 23:54 Clear 72 22.2 67 19.4 84 84 SSE 8 13 29.89 1012 9 14.48406 0 0

Powered by AerisWeather